Date String (YYYY-MM-DD hh:mm:ss) UTC,Instrument flags,Ambient pressure (hPa),Sample flow (lpm),Bypass flow (lpm),Sample temperature (°C),Ambient temperature (°C),ASC tube jacket temperature (°C),LED temperature (°C),Box temperature (°C),Sample RH (%),Span deviation,Mass concentration (μg/m³),Mass concentration (μg/m³),Mass concentration (μg/m³)
DateTimeUTC,F1_M11,P_M11,Q1_M11,Q2_M11,T1_M11,T2_M11,T3_M11,T4_M11,T5_M11,U1_M11,ZSPAN_M11,X0_M11,X2_M11,X1_M11
2023-02-14 09:00:00,,0801.9,5.00,0.00,22.2,20.2,00.0,31.3,23.9,12.4,0000.0,0004.52,0002.13,0001.69
2023-02-14 09:01:00,,0801.9,5.00,0.00,22.2,20.1,00.0,31.2,23.9,12.5,0000.0,0004.28,0002.03,0001.62
2023-02-14 09:02:00,,0801.9,4.99,0.00,22.2,20.2,00.0,31.2,23.9,12.3,0000.0,0004.15,0001.94,0001.55
2023-02-14 09:03:00,,0801.9,5.01,0.00,22.2,21.3,00.0,31.1,24.1,12.4,0000.0,0004.03,0001.86,0001.49
2023-02-14 09:04:00,,0801.9,5.00,0.00,22.3,22.5,00.0,31.1,24.4,12.3,0000.0,0003.87,0001.81,0001.47
2023-02-14 09:05:00,,0801.9,5.00,0.00,22.5,23.0,00.0,31.2,24.6,12.4,0000.0,0003.21,0001.77,0001.47
2023-02-14 09:06:00,,0801.9,4.98,0.00,22.5,22.4,00.0,31.2,24.5,12.3,0000.0,0002.96,0001.78,0001.46
2023-02-14 09:07:00,,0801.9,4.99,0.00,22.5,22.0,00.0,31.3,24.4,12.1,0000.0,0002.36,0001.73,0001.46
2023-02-14 09:08:00,,0801.8,5.01,0.00,22.5,21.6,00.0,31.3,24.3,12.0,0000.0,0002.31,0001.72,0001.45
2023-02-14 09:09:00,,0801.9,5.00,0.00,22.5,21.3,00.0,31.3,24.3,11.9,0000.0,0002.28,0001.70,0001.44
2023-02-14 09:10:00,,0801.9,5.00,0.00,22.4,21.1,00.0,31.3,24.2,12.1,0000.0,0002.24,0001.69,0001.44
2023-02-14 09:11:00,,0801.9,5.00,0.00,22.4,20.9,00.0,31.3,24.2,12.2,0000.0,0002.27,0001.71,0001.44
2023-02-14 09:12:00,,0801.8,5.00,0.00,22.4,20.7,00.0,31.3,24.1,12.1,0000.0,0002.39,0001.76,0001.45
2023-02-14 09:13:00,,0801.8,5.00,0.00,22.3,20.6,00.0,31.3,24.0,12.3,0000.0,0002.41,0001.77,0001.45
2023-02-14 09:14:00,,0801.7,5.02,0.00,22.3,20.5,00.0,31.3,24.0,12.3,0000.0,0002.41,0001.78,0001.46
2023-02-14 09:15:00,,0801.7,5.00,0.00,22.3,20.4,00.0,31.3,23.9,12.3,0000.0,0002.46,0001.79,0001.46
2023-02-14 09:16:00,,0801.7,5.00,0.00,22.2,20.3,00.0,31.3,23.9,12.1,0000.0,0002.52,0001.80,0001.45
2023-02-14 09:17:00,,0801.7,5.00,0.00,22.2,20.3,00.0,31.2,23.8,12.1,0000.0,0002.47,0001.77,0001.44
2023-02-14 09:18:00,,0801.7,4.99,0.00,22.1,20.2,00.0,31.2,23.8,11.9,0000.0,0002.46,0001.76,0001.44
2023-02-14 09:19:00,,0801.7,5.00,0.00,22.1,20.2,00.0,31.2,23.8,11.8,0000.0,0002.51,0001.77,0001.45
2023-02-14 09:20:00,,0801.7,5.01,0.00,22.1,20.2,00.0,31.2,23.8,11.9,0000.0,0002.65,0001.82,0001.46
2023-02-14 09:21:00,,0801.6,5.00,0.00,22.1,20.2,00.0,31.2,23.7,12.0,0000.0,0002.73,0001.86,0001.47
2023-02-14 09:22:00,,0801.6,5.00,0.00,22.0,20.2,00.0,31.1,23.7,11.9,0000.0,0002.75,0001.86,0001.47
2023-02-14 09:23:00,,0801.6,5.01,0.00,22.1,20.9,00.0,31.1,23.9,12.1,0000.0,0002.63,0001.81,0001.46
2023-02-14 09:24:00,,0801.5,4.97,0.00,22.2,22.1,00.0,31.1,24.2,12.0,0000.0,0002.55,0001.78,0001.45
2023-02-14 09:25:00,,0801.4,5.02,0.00,22.3,23.0,00.0,31.1,24.5,11.9,0000.0,0002.55,0001.78,0001.44
2023-02-14 09:26:00,,0801.5,5.00,0.00,22.4,22.6,00.0,31.1,24.4,11.9,0000.0,0002.58,0001.80,0001.44
2023-02-14 09:27:00,,0801.5,5.01,0.00,22.4,22.1,00.0,31.2,24.3,12.0,0000.0,0002.53,0001.78,0001.43
2023-02-14 09:28:00,,0801.5,5.02,0.00,22.4,21.6,00.0,31.2,24.2,12.0,0000.0,0002.54,0001.79,0001.43
2023-02-14 09:29:00,,0801.4,4.99,0.00,22.4,21.3,00.0,31.2,24.1,12.0,0000.0,0002.66,0001.81,0001.43
2023-02-14 09:30:00,,0801.4,5.00,0.00,22.4,21.0,00.0,31.2,24.1,12.2,0000.0,0002.67,0001.80,0001.42
2023-02-14 09:31:00,,0801.4,4.99,0.00,22.3,20.8,00.0,31.2,24.0,12.1,0000.0,0002.60,0001.76,0001.42
2023-02-14 09:32:00,,0801.3,5.00,0.00,22.3,20.7,00.0,31.2,24.0,12.1,0000.0,0002.61,0001.76,0001.42
2023-02-14 09:33:00,,0801.3,4.99,0.00,22.3,20.5,00.0,31.2,24.0,12.2,0000.0,0002.67,0001.78,0001.41
2023-02-14 09:34:00,,0801.3,5.01,0.00,22.2,20.4,00.0,31.2,23.9,12.4,0000.0,0003.29,0001.78,0001.40
2023-02-14 09:35:00,,0801.3,5.00,0.00,22.2,20.4,00.0,31.2,23.9,12.5,0000.0,0004.67,0001.80,0001.39
2023-02-14 09:36:00,,0801.3,5.00,0.00,22.2,20.3,00.0,31.2,23.9,12.5,0000.0,0005.46,0001.87,0001.40
2023-02-14 09:37:00,,0801.3,4.99,0.00,22.2,20.3,00.0,31.2,23.9,12.4,0000.0,0006.94,0001.98,0001.39
2023-02-14 09:38:00,,0801.3,5.00,0.00,22.1,20.3,00.0,31.2,23.9,12.5,0000.0,0007.09,0002.01,0001.39
2023-02-14 09:39:00,,0801.3,5.01,0.00,22.1,20.3,00.0,31.1,23.8,12.5,0000.0,0007.24,0002.01,0001.38
2023-02-14 09:40:00,,0801.3,5.00,0.00,22.1,20.3,00.0,31.1,23.8,12.5,0000.0,0007.31,0002.02,0001.38
2023-02-14 09:41:00,,0801.2,5.00,0.00,22.1,20.3,00.0,31.1,23.8,12.5,0000.0,0007.28,0002.00,0001.36
2023-02-14 09:42:00,,0801.2,4.99,0.00,22.1,20.2,00.0,31.1,23.8,12.4,0000.0,0007.40,0002.02,0001.35
2023-02-14 09:43:00,,0801.2,5.01,0.00,22.1,20.2,00.0,31.1,23.8,12.3,0000.0,0008.08,0002.02,0001.33
2023-02-14 09:44:00,,0801.2,5.01,0.00,22.0,20.1,00.0,31.1,23.7,12.5,0000.0,0008.06,0002.01,0001.32
2023-02-14 09:45:00,,0801.1,5.00,0.00,22.0,20.4,00.0,31.0,23.8,12.3,0000.0,0008.04,0002.04,0001.30
2023-02-14 09:46:00,,0801.0,5.02,0.00,22.1,21.6,00.0,31.0,24.0,12.0,0000.0,0007.19,0002.06,0001.30
2023-02-14 09:47:00,,0800.9,5.01,0.00,22.2,22.7,00.0,31.0,24.3,12.1,0000.0,0006.57,0002.01,0001.29
2023-02-14 09:48:00,,0800.9,4.99,0.00,22.3,22.7,00.0,31.0,24.4,12.0,0000.0,0005.43,0002.01,0001.28
2023-02-14 09:49:00,,0800.9,4.99,0.00,22.4,22.2,00.0,31.1,24.3,12.1,0000.0,0005.04,0001.99,0001.27
2023-02-14 09:50:00,,0800.9,5.01,0.00,22.4,21.8,00.0,31.1,24.2,11.9,0000.0,0006.83,0002.06,0001.26
2023-02-14 09:51:00,,0800.7,5.01,0.00,22.3,21.4,00.0,31.1,24.1,11.9,0000.0,0006.66,0002.05,0001.26
2023-02-14 09:52:00,,0800.7,4.99,0.00,22.3,21.1,00.0,31.2,24.1,11.9,0000.0,0007.30,0002.09,0001.26
2023-02-14 09:53:00,,0800.8,5.00,0.00,22.3,20.9,00.0,31.2,24.0,12.0,0000.0,0007.47,0002.16,0001.27
2023-02-14 09:54:00,,0800.7,4.99,0.00,22.3,20.7,00.0,31.2,24.0,12.0,0000.0,0006.72,0002.23,0001.27
2023-02-14 09:55:00,,0800.7,4.98,0.00,22.2,20.6,00.0,31.2,23.9,12.0,0000.0,0007.50,0002.19,0001.28
2023-02-14 09:56:00,,0800.7,5.01,0.00,22.2,20.4,00.0,31.1,23.9,12.0,0000.0,0007.43,0002.17,0001.30
2023-02-14 09:57:00,,0800.6,4.99,0.00,22.2,20.3,00.0,31.1,23.8,12.0,0000.0,0007.40,0002.15,0001.32
2023-02-14 09:58:00,,0800.7,5.03,0.00,22.1,20.2,00.0,31.1,23.8,11.8,0000.0,0007.34,0002.14,0001.33
2023-02-14 09:59:00,,0800.8,4.99,0.00,22.1,20.2,00.0,31.1,23.8,12.0,0000.0,0007.24,0002.08,0001.35
